Showing default

UMBRA-05, 55036

Orbit data source: Space-Track

UMBRA-05, 55036 is a payload satellite owned by Umbra Labs (US) in SSO that was launched on Tue, 03 Jan 2023 UTC via an FALCON 9 launch vehicle from the Air Force Eastern Test Range (AFETR). Payload-class satellites include a variety of spacecraft equipped with specific instruments for various scientific and technological missions. These include communications satellites like Starlink; space stations such as the ISS; scientific satellites like the Hubble; Earth observation satellites from companies like Planet Labs, Umbra, and HawkEye 360; GPS; miniature CubeSats for education and research; and military/defense satellites.

Loading next visibility...
Identifier
55036, 2023-001AD
Orbit
SSO
Last TLE update
16 hours ago
Origin
Manufacturer
Umbra Labs
Mission
Operational Commercial Radar Imaging
Bus & Motor
UMBRA, Unknown motor
Mass
65 kg wet, 60 kg dry
Launch date (UTC)
2023-01-03 (2 years ago)
Launch vehicle
FALCON 9
Launch site
Air Force Eastern Test Range (AFETR)
Object type
Payload
Rocket body
Debris
Shape & HBR
Box + 2 Pan + 1 Dish, 3.8 m
Radar Cross Section
0.929 m², Large (>1 m²)

Expand to show TLE details & history

TLE from 16 hours ago
0 UMBRA-05
1 55036U 23001AD  25166.88308080  .00041245  00000-0  10460-2 0  9999
2 55036  97.3697 224.3586 0005944 189.7165 170.3967 15.39560951135782
Epoch: 2025-06-15T21:11Z
TLE epoch observation values (Epoch: 2025-06-15T21:11:38.181Z)
Latitude
0.00001°
Longitude
2.04772°
Altitude
454.526 km
Speed
7.638 km/s
True Right ascension
14h 57m 26s
True Declination
0° 00' 00"
Sunlit
Object was in full shadow at epoch
Visualization orbit readout
Latitude
52.33388°
Longitude
-167.68363°
Altitude
453.787 km
Speed
7.646 km/s
Apparent Right ascension
08h 24m 13s
Apparent Declination
17° 20' 18"
Sunlit
Object is in daylight
Visualization observer readout
Local Sidereal Time
00:00:23
Azimuth
52.716° ENE
Elevation
-13.81°
Doppler factor
1
Orbital elements
Apogee altitude
448.4 km
Perigee altitude
440.29 km
Semi-major axis
6,822.482 km
Eccentricity
0.00059
Inclination
97.3697°
RAAN
224.3586°
Arg. of periapsis
189.7165°
True anomaly
Unknown
Mean anomaly
170.3967°
Eccentric anomaly
Unknown
Mean motion
3.8515 °/min
Orbital period
93.47 mins
BSTAR
0.001046
Loading maneuver chart data...
Loading SW <> Apogee altitude chart data...
Loading historical data...
Loading historical data...
Loading historical data...
Loading historical data...
Loading historical data...
Loading historical data...
Loading historical data...

UMBRA-05 Visibility forecast

Observer location: undefined°, undefined°

Span
Click to sort rows by Start time (UTC) header in descending order
Start Az.
Max El. time (UTC)
Max El. Az.
Max El.
End time (UTC)
End Az.
5 mins2025-06-16 16:28:36.155Z24.507° NE2025-06-16 16:31:36.155Z132.247° SE37.231°2025-06-16 16:33:36.155Z174.965° S
|